Wind_Speed
10 10 10 10 10 10 10 10 10 11 11 11 11 12 13 13 13 12 13 13 13 12 12 13 13 12 12 12 12 12 12 11 11 11 12 12 13 12 12 12 11 11 12
11 11 11 11 10 10 10 10 10 11 11 12 12 12 12 12 12 12 12 12 12 13 13 13 14 13 12 12 12 12 12 12 12 12 13 13 13 13 12 12 12 12 13
10 11 11 11 11 11 11 11 11 11 12 12 12 12 12 12 13 13 13 13 13 13 13 14 14 13 13 13 14 13 13 13 13 13 13 13 13 13 13 13 13 14 13
11 11 11 11 11 12 13 13 12 12 12 12 13 13 13 12 13 13 13 13 13 13 13 13 14 14 14 13 13 13 13 13 13 13 13 13 13 13 13 13 13 14 14
11 11 11 11 12 12 13 13 12 13 12 12 12 12 12 13 12 13 13 13 13 14 14 13 13 14 13 13 14 14 14 14 14 14 14 14 14 13 14 14 14 14 14
11 12 12 12 13 13 13 13 13 13 13 12 12 12 13 13 13 13 13 13 13 13 14 14 14 14 14 14 14 15 15 15 15 15 15 15 15 15 15 16 15 15 15
12 12 13 13 13 13 13 14 14 14 13 13 13 13 13 13 14 14 14 14 14 14 14 15 15 15 15 15 15 15 15 15 15 15 15 16 16 16 16 16 17 17 16
13 13 13 13 14 13 14 14 14 14 14 14 13 14 14 14 14 15 15 15 15 15 15 15 16 16 16 15 15 16 16 16 16 16 16 17 17 17 17 17 17 17 17
14 14 14 14 14 14 14 14 14 14 14 14 15 15 15 15 15 15 15 16 16 16 16 16 16 16 17 16 17 16 16 17 17 17 17 17 18 18 18 18 18 18 17
15 15 15 15 15 15 15 15 15 14 15 15 15 15 15 15 15 15 15 16 16 16 17 17 16 17 17 17 17 17 17 17 17 17 18 18 18 19 19 19 19 19 18
16 16 16 16 16 16 16 16 16 15 15 16 16 16 16 15 15 15 15 15 16 17 17 18 18 18 18 18 17 17 17 17 17 17 18 18 19 19 19 20 20 20 19
16 16 16 16 17 17 17 17 16 16 16 16 16 16 16 16 16 16 16 16 17 17 18 18 19 19 19 19 18 18 18 18 18 18 18 18 19 19 20 20 21 20 20
17 16 16 17 17 18 18 17 17 17 17 17 16 16 16 16 16 17 17 17 17 18 19 19 20 20 20 20 19 19 19 19 19 19 19 19 20 20 20 20 20 20 21
18 18 18 18 18 18 18 18 18 17 17 17 17 17 17 17 17 17 18 18 18 18 19 20 20 21 21 20 20 20 20 20 20 20 20 20 20 20 20 21 21 21 21
20 19 19 19 19 19 19 19 19 18 18 17 17 18 18 18 18 18 19 19 19 19 20 20 21 21 21 21 21 21 21 21 21 21 21 21 21 21 21 21 22 22 22
21 21 20 20 20 19 19 20 20 19 19 18 18 18 18 19 19 20 20 19 20 20 20 20 21 21 22 22 22 21 22 22 22 22 21 21 22 22 22 22 22 22 22
22 22 22 22 21 21 21 21 21 20 20 20 19 19 19 19 19 20 20 20 20 20 21 21 21 22 22 22 22 23 23 23 22 22 22 22 23 23 23 23 23 23 23
24 24 23 23 22 22 22 22 22 22 22 22 21 21 21 21 20 21 21 21 21 21 21 21 22 22 22 23 23 23 23 23 23 23 23 23 23 23 23 23 24 24 24
24 24 24 24 23 23 23 23 23 23 23 23 23 22 22 22 22 22 22 21 21 22 22 22 22 23 23 23 23 23 23 23 23 24 24 24 24 24 24 24 24 24 24
24 25 24 24 24 23 23 23 23 23 24 24 24 23 23 23 22 23 23 22 22 22 23 23 23 23 24 24 24 24 24 24 25 25 25 24 24 25 25 25 25 25 24
25 25 25 25 25 25 24 23 23 23 24 24 24 24 24 24 23 23 24 24 23 23 23 24 24 24 24 25 25 25 26 26 26 26 26 26 26 25 25 25 26 26 25
26 26 25 25 25 25 25 24 23 23 24 24 24 24 24 25 25 25 25 25 25 24 24 24 25 25 25 25 26 27 27 26 26 26 27 27 27 27 26 26 25 26 25
27 27 26 26 26 25 25 25 25 25 24 25 26 26 25 25 25 25 25 25 25 24 25 25 25 25 25 25 26 27 27 27 27 28 28 28 28 27 27 27 26 26 26
27 27 27 26 26 26 26 26 26 26 26 27 27 27 27 27 26 26 26 26 26 26 26 26 26 26 26 27 27 27 27 28 28 28 28 28 28 28 28 27 27 27 26
27 27 26 26 26 26 27 26 26 27 27 28 28 28 28 27 27 27 27 26 26 27 27 27 27 27 28 28 28 28 28 28 28 28 29 29 28 28 28 28 27 28 28
27 27 26 27 27 27 27 27 28 28 28 27 28 28 28 27 27 27 27 27 27 27 28 28 29 29 29 29 29 29 29 29 29 29 29 29 29 29 28 28 28 28 29
Wind_Direction
252 253 255 257 258 259 261 263 264 265 266 266 266 266 266 267 267 266 261 258 257 255 256 257 261 264 265 268 271 272 270 269 270 272 273 274 276 277 278 277 279 282 283
255 254 256 258 258 259 262 264 267 266 267 268 267 266 267 269 270 269 266 263 258 255 257 259 263 264 265 267 269 272 274 272 273 272 273 274 274 274 275 277 280 281 281
256 257 257 257 258 259 263 267 271 269 268 269 268 267 268 267 267 267 267 264 260 258 258 262 263 264 265 267 268 270 271 271 271 271 271 272 274 274 274 278 279 280 281
257 259 258 258 260 260 263 267 269 271 270 268 267 267 267 266 265 266 266 264 260 259 259 262 263 264 265 265 268 269 270 271 270 269 269 269 270 271 272 277 281 285 284
256 257 259 261 262 264 265 267 269 271 271 272 269 266 265 265 266 266 264 263 262 259 259 260 261 263 263 264 266 268 269 269 268 268 268 268 269 272 275 279 280 282 284
258 258 259 262 263 264 264 266 270 270 270 272 271 268 267 266 265 266 265 264 263 261 259 260 261 262 265 266 267 270 269 269 268 268 269 269 270 272 276 276 278 280 282
260 262 263 265 265 264 264 266 268 269 270 272 272 271 269 269 266 265 267 266 264 264 262 261 262 263 266 267 269 272 272 270 269 270 270 270 272 274 275 276 277 279 280
264 265 264 266 267 268 268 268 268 268 270 269 270 271 271 270 268 266 266 265 264 263 262 263 262 263 267 269 270 272 273 272 272 271 271 271 273 275 276 277 276 278 278
266 267 266 266 267 269 269 269 268 267 269 269 270 272 272 271 270 268 267 267 266 265 265 266 264 263 265 269 270 273 274 274 274 273 274 274 273 274 275 276 278 276 277
267 268 268 267 267 268 269 268 267 267 267 268 269 270 271 271 270 270 268 267 268 267 266 266 266 265 265 268 270 272 274 275 274 274 274 274 273 273 275 275 277 277 276
270 270 268 268 267 267 267 267 267 267 267 268 267 268 269 269 270 270 269 269 270 269 268 266 266 268 268 268 269 271 273 274 274 275 275 275 274 274 273 274 275 275 274
272 271 269 268 269 268 268 266 265 267 268 268 267 268 269 268 269 269 269 269 270 270 268 266 267 269 269 268 270 271 272 273 275 275 275 275 275 275 274 274 274 274 274
272 271 271 271 272 271 270 269 267 266 267 268 268 267 268 270 270 270 270 269 269 269 268 266 267 269 268 269 271 271 272 273 275 275 275 275 274 275 275 275 274 273 275
273 273 273 273 274 273 271 269 267 266 267 267 267 267 267 268 269 270 271 270 271 270 269 269 268 267 267 268 271 272 273 273 274 275 275 275 275 276 275 274 273 273 275
273 272 273 274 273 272 270 268 266 265 267 268 267 267 267 266 269 271 272 271 271 270 269 270 269 269 268 269 270 271 272 273 274 275 275 275 275 276 276 276 275 274 274
273 271 271 273 273 272 271 270 266 264 266 267 267 266 266 268 270 271 272 271 272 272 269 269 269 269 270 269 269 270 272 274 275 274 275 275 275 276 275 274 274 274 275
271 272 271 271 271 270 270 269 267 264 264 265 266 266 266 267 269 270 271 271 272 272 270 270 270 270 269 269 269 270 272 273 274 275 275 276 277 275 274 274 273 272 274
269 269 269 270 270 269 268 268 266 265 264 265 266 266 266 267 269 270 271 271 272 272 272 271 271 270 270 270 270 271 272 273 274 275 275 276 277 276 274 274 274 273 273
269 267 267 268 268 268 267 266 264 264 264 264 265 268 268 268 268 270 271 272 272 273 274 273 272 272 271 271 271 271 271 273 274 275 276 276 276 276 276 276 276 274 273
269 267 267 267 267 266 266 265 264 264 263 263 265 267 268 267 268 269 270 272 273 274 274 274 273 273 273 273 272 273 273 273 274 275 276 276 277 277 277 277 275 274 273
267 266 266 267 268 267 266 265 264 264 263 263 265 266 268 268 268 269 270 272 273 274 275 275 274 274 274 274 272 273 274 274 274 275 274 275 276 277 277 276 276 275 273
267 266 266 266 267 265 265 265 263 263 264 264 265 267 269 269 270 271 271 271 272 273 274 275 275 275 275 275 273 274 275 274 274 274 274 275 275 275 276 277 277 276 275
268 266 266 265 265 265 264 264 261 263 265 264 265 266 269 270 270 271 270 271 271 273 275 275 275 275 275 275 276 275 276 275 275 275 274 274 275 275 275 276 275 275 275
268 267 265 264 264 264 264 263 263 265 266 265 265 267 268 269 270 270 271 271 272 274 275 275 275 275 275 276 277 276 276 276 276 275 274 275 275 275 275 275 274 274 273
268 267 266 264 264 264 264 264 265 265 265 265 266 267 267 269 270 270 271 271 272 273 274 275 275 275 275 277 277 277 276 275 276 275 275 274 274 274 274 274 273 273 272
268 267 266 264 264 263 264 265 266 265 265 266 266 266 267 270 270 269 270 271 273 273 273 274 275 275 276 277 277 278 277 275 275 275 275 275 274 274 273 272 273 272 272
Height
5862 5862 5862 5862 5862 5862 5861 5861 5861 5861 5860 5860 5860 5860 5860 5860 5859 5859 5859 5859 5859 5859 5859 5859 5859 5859 5858 5858 5858 5858 5858 5857 5857 5857 5857 5856 5856 5856 5856 5856 5855 5855 5854
5860 5860 5860 5860 5860 5860 5860 5859 5859 5859 5858 5858 5858 5858 5857 5857 5857 5857 5856 5856 5856 5856 5856 5856 5856 5856 5856 5856 5856 5856 5856 5855 5855 5855 5855 5855 5854 5854 5854 5853 5853 5852 5852
5857 5858 5857 5858 5858 5858 5858 5857 5857 5857 5856 5856 5855 5855 5855 5855 5854 5854 5854 5854 5854 5853 5853 5853 5854 5853 5853 5853 5853 5853 5853 5853 5853 5852 5852 5852 5852 5851 5851 5851 5850 5850 5849
5855 5855 5855 5855 5855 5855 5855 5855 5855 5854 5854 5853 5853 5853 5852 5852 5852 5851 5851 5851 5851 5851 5851 5851 5851 5851 5851 5850 5850 5850 5850 5850 5850 5850 5850 5849 5849 5849 5849 5848 5847 5847 5846
5853 5853 5853 5853 5853 5853 5852 5852 5852 5852 5851 5851 5850 5850 5850 5849 5849 5849 5848 5848 5848 5848 5848 5848 5848 5848 5848 5848 5848 5847 5847 5847 5847 5847 5846 5846 5846 5846 5846 5845 5845 5844 5844
5851 5851 5851 5851 5850 5850 5850 5850 5849 5849 5849 5848 5848 5848 5847 5847 5846 5846 5846 5845 5845 5845 5845 5845 5845 5845 5845 5845 5845 5844 5844 5844 5843 5843 5843 5843 5843 5843 5843 5842 5842 5841 5841
5849 5849 5848 5848 5848 5847 5847 5847 5846 5846 5846 5845 5845 5845 5844 5844 5843 5843 5842 5842 5842 5842 5842 5842 5842 5842 5841 5841 5841 5841 5840 5840 5840 5840 5840 5839 5839 5839 5839 5839 5839 5838 5837
5846 5846 5845 5845 5845 5844 5844 5843 5843 5843 5843 5842 5842 5842 5841 5841 5840 5840 5839 5839 5839 5839 5839 5838 5838 5838 5838 5838 5838 5837 5837 5837 5837 5836 5836 5836 5836 5836 5836 5835 5835 5834 5834
5843 5842 5842 5842 5841 5841 5840 5840 5840 5839 5839 5839 5838 5838 5838 5838 5837 5837 5836 5836 5835 5835 5835 5835 5835 5835 5835 5834 5834 5834 5833 5833 5833 5833 5833 5832 5832 5832 5831 5831 5831 5830 5830
5839 5839 5838 5838 5838 5837 5837 5837 5836 5836 5835 5835 5835 5834 5834 5834 5833 5833 5833 5832 5832 5831 5831 5831 5831 5831 5831 5831 5830 5830 5830 5829 5829 5829 5828 5828 5828 5828 5827 5827 5826 5826 5826
5835 5835 5834 5834 5834 5833 5833 5832 5832 5832 5831 5831 5830 5830 5830 5830 5829 5829 5829 5828 5828 5827 5827 5827 5827 5827 5827 5826 5826 5826 5826 5825 5825 5825 5824 5824 5824 5823 5823 5822 5822 5822 5821
5831 5830 5830 5829 5829 5829 5828 5828 5828 5827 5827 5827 5827 5826 5826 5826 5825 5825 5825 5824 5824 5823 5823 5823 5823 5822 5822 5822 5822 5822 5821 5821 5821 5820 5820 5820 5819 5819 5818 5818 5817 5817 5817
5827 5826 5825 5825 5824 5824 5824 5823 5823 5823 5823 5822 5822 5822 5822 5821 5821 5821 5821 5820 5820 5819 5818 5818 5818 5818 5818 5818 5817 5817 5817 5817 5816 5816 5815 5815 5815 5814 5814 5813 5813 5812 5812
5822 5821 5820 5820 5819 5819 5818 5818 5818 5818 5818 5818 5817 5817 5817 5817 5817 5816 5816 5816 5815 5815 5814 5814 5813 5813 5813 5813 5813 5812 5812 5812 5811 5811 5810 5810 5810 5809 5809 5808 5808 5807 5807
5816 5816 5815 5814 5814 5814 5813 5813 5813 5813 5813 5813 5813 5812 5812 5812 5812 5812 5811 5811 5811 5810 5810 5809 5808 5808 5808 5808 5807 5807 5807 5807 5806 5806 5805 5805 5804 5804 5803 5803 5802 5802 5801
5810 5810 5809 5809 5808 5808 5808 5807 5807 5807 5807 5807 5807 5807 5807 5807 5807 5807 5806 5806 5805 5805 5805 5804 5803 5803 5802 5802 5802 5802 5802 5801 5801 5800 5800 5799 5799 5798 5798 5797 5796 5796 5795
5804 5804 5803 5803 5803 5802 5802 5802 5802 5802 5802 5802 5802 5802 5802 5802 5802 5801 5801 5800 5800 5800 5799 5799 5798 5797 5797 5797 5796 5796 5796 5795 5795 5795 5794 5794 5793 5792 5792 5791 5790 5790 5789
5798 5797 5797 5796 5796 5796 5796 5796 5796 5796 5796 5796 5796 5796 5796 5796 5796 5796 5795 5795 5794 5794 5794 5793 5793 5792 5791 5791 5791 5790 5790 5789 5789 5789 5788 5787 5787 5786 5785 5784 5784 5783 5783
5791 5790 5790 5790 5790 5790 5790 5789 5789 5789 5790 5790 5790 5790 5790 5790 5790 5790 5789 5789 5789 5788 5788 5787 5787 5786 5786 5785 5785 5784 5784 5783 5783 5782 5782 5781 5780 5779 5778 5778 5777 5777 5776
5784 5783 5783 5783 5783 5783 5783 5783 5782 5782 5783 5783 5783 5784 5784 5784 5784 5784 5783 5783 5782 5782 5781 5781 5781 5780 5779 5779 5778 5778 5777 5777 5776 5776 5775 5774 5773 5772 5772 5771 5770 5770 5769
5776 5776 5776 5776 5776 5776 5776 5776 5776 5776 5776 5776 5777 5777 5777 5777 5777 5777 5777 5777 5776 5776 5775 5774 5774 5773 5773 5772 5772 5771 5770 5770 5769 5768 5768 5767 5766 5766 5764 5764 5763 5762 5762
5768 5768 5768 5768 5768 5768 5769 5769 5769 5769 5769 5770 5770 5770 5770 5771 5770 5770 5770 5770 5769 5769 5768 5768 5767 5766 5766 5765 5764 5764 5763 5762 5762 5761 5760 5760 5759 5758 5757 5756 5755 5755 5754
5760 5760 5760 5760 5761 5761 5762 5762 5762 5762 5763 5763 5763 5763 5764 5763 5763 5763 5763 5763 5762 5762 5761 5761 5760 5759 5758 5758 5757 5756 5755 5754 5754 5753 5752 5752 5751 5750 5749 5748 5748 5747 5746
5752 5752 5753 5753 5753 5754 5754 5755 5755 5755 5755 5756 5756 5756 5756 5756 5756 5756 5756 5755 5755 5754 5753 5753 5752 5752 5751 5750 5749 5749 5747 5746 5745 5744 5744 5743 5742 5742 5741 5740 5739 5739 5738
5744 5744 5745 5745 5746 5746 5747 5747 5747 5748 5748 5748 5748 5748 5748 5749 5749 5748 5748 5748 5747 5747 5746 5745 5744 5743 5743 5742 5741 5740 5739 5738 5737 5736 5735 5734 5734 5733 5732 5732 5731 5730 5730
5736 5736 5737 5737 5738 5739 5739 5739 5740 5740 5740 5741 5741 5740 5741 5741 5741 5740 5740 5740 5739 5738 5738 5737 5736 5735 5734 5733 5732 5731 5730 5729 5728 5727 5726 5725 5725 5724 5724 5723 5723 5722 5721